West Bend, WI

7:41 AM CDT on September 25, 2017 (GMT -0500)
West Bend Municipal

Weather History for KETB - November, 2013

Change the Weather History Date:

Saturday, November 23, 2013

  Actual Average Record
Temperature  
Mean Temperature 19 °F -  
Max Temperature 26 °F 40 °F 63 °F (1931)
Min Temperature 12 °F 25 °F -1 °F (1950)
Degree Days  
Heating Degree Days 46    
Moisture  
Dew Point 4 °F    
Average Humidity 55    
Maximum Humidity 68    
Minimum Humidity 36    
Precipitation  
Precipitation 0.00 in - - ()
Sea Level Pressure  
Sea Level Pressure 30.54 in    
Wind  
Wind Speed 13 mph (NW)    
Max Wind Speed 22 mph    
Max Gust Speed 29 mph    
Visibility 10 miles    
Events Snow    
Averages and records for this station are not official NWS values.
T = Trace of Precipitation, MM = Missing Value Source: NWS Daily Summary

Daily Weather History Graph

Daily Weather History Graph

Search for Another Location

Airport or City:

Trip Planner

Search our weather history database for the weather conditions in past years. The results will help you decide how hot, cold, wet, or windy it might be!

Date:

Astronomy

Nov. 23, 2013 Rise Set
Actual Time 6:56 AM CST 4:21 PM CST
Civil Twilight 6:24 AM CST 4:52 PM CST
Nautical Twilight 5:49 AM CST 5:27 PM CST
Astronomical Twilight 5:15 AM CST 6:02 PM CST
Moon 9:53 PM CST (11/23) 11:09 AM CST (11/23)
Length of Visible Light 10h 27m
Length of Day
9h 24m
Waning Gibbous, 69% of the Moon is Illuminated
Nov 23
Waning Gibbous
Nov 25
Last Quarter
Dec 2
New
Dec 9
First Quarter
Dec 17
Full

Hourly Weather History & Observations

Time (CST) Temp. Windchill Dew Point Humidity Pressure Visibility Wind Dir Wind Speed Gust Speed Precip Events Conditions
12:15 AM 26.6 °F 16.8 °F 10.4 °F 51% 30.36 in 10.0 mi West 10.4 mph - N/A   Clear
12:35 AM 26.6 °F 18.2 °F 10.4 °F 51% 30.36 in 10.0 mi West 8.1 mph - N/A   Clear
12:55 AM 26.6 °F 19.1 °F 10.4 °F 51% 30.35 in 10.0 mi West 6.9 mph - N/A   Scattered Clouds
1:15 AM 26.6 °F 16.8 °F 12.2 °F 55% 30.35 in 10.0 mi WNW 10.4 mph 18.4 mph N/A   Mostly Cloudy
1:35 AM 26.6 °F 17.5 °F 12.2 °F 55% 30.37 in 10.0 mi WNW 9.2 mph 17.3 mph N/A   Overcast
1:55 AM 26.6 °F 18.2 °F 12.2 °F 55% 30.37 in 10.0 mi WNW 8.1 mph 18.4 mph N/A   Mostly Cloudy
2:15 AM 26.6 °F 16.8 °F 12.2 °F 55% 30.37 in 10.0 mi NW 10.4 mph 18.4 mph N/A   Mostly Cloudy
2:35 AM 24.8 °F 11.1 °F 12.2 °F 59% 30.38 in 10.0 mi WNW 18.4 mph 21.9 mph N/A   Scattered Clouds
2:55 AM 23.0 °F 11.1 °F 14.0 °F 68% 30.38 in 10.0 mi WNW 12.7 mph 24.2 mph N/A   Scattered Clouds
3:15 AM 23.0 °F 10.1 °F 14.0 °F 68% 30.39 in 10.0 mi NW 15.0 mph - N/A   Scattered Clouds
3:35 AM 23.0 °F 10.1 °F 14.0 °F 68% 30.39 in 10.0 mi NW 15.0 mph 19.6 mph N/A   Scattered Clouds
3:55 AM 23.0 °F 12.4 °F 12.2 °F 63% 30.40 in 10.0 mi WNW 10.4 mph 23.0 mph N/A   Scattered Clouds
4:15 AM 21.2 °F 7.8 °F 12.2 °F 68% 30.41 in 10.0 mi WNW 15.0 mph 20.7 mph N/A   Scattered Clouds
4:35 AM 21.2 °F 6.8 °F 12.2 °F 68% 30.41 in 10.0 mi NW 17.3 mph 24.2 mph N/A   Scattered Clouds
4:55 AM 21.2 °F 7.8 °F 10.4 °F 63% 30.42 in 10.0 mi NW 15.0 mph 23.0 mph N/A   Overcast
5:15 AM 19.4 °F 4.5 °F 10.4 °F 68% 30.43 in 10.0 mi WNW 17.3 mph - N/A   Overcast
5:35 AM 19.4 °F 5.0 °F 8.6 °F 63% 30.45 in 10.0 mi WNW 16.1 mph 24.2 mph N/A   Mostly Cloudy
5:55 AM 19.4 °F 6.6 °F 10.4 °F 68% 30.45 in 10.0 mi NW 12.7 mph 20.7 mph N/A Snow Light Snow
6:15 AM 19.4 °F 5.5 °F 10.4 °F 68% 30.46 in 10.0 mi NW 15.0 mph 26.5 mph N/A   Overcast
6:35 AM 17.6 °F 2.7 °F 5.0 °F 58% 30.47 in 10.0 mi NW 16.1 mph 28.8 mph N/A   Mostly Cloudy
6:55 AM 17.6 °F 4.3 °F 5.0 °F 58% 30.48 in 10.0 mi NW 12.7 mph 23.0 mph N/A   Overcast
7:35 AM 17.6 °F 3.2 °F 5.0 °F 58% 30.50 in 10.0 mi WNW 15.0 mph 19.6 mph N/A   Mostly Cloudy
7:55 AM 17.6 °F 5.0 °F 5.0 °F 58% 30.51 in 10.0 mi NW 11.5 mph 18.4 mph N/A   Scattered Clouds
8:15 AM 17.6 °F 5.0 °F 5.0 °F 58% 30.52 in 10.0 mi NW 11.5 mph 24.2 mph N/A   Clear
8:35 AM 17.6 °F 2.7 °F 5.0 °F 58% 30.53 in 10.0 mi NW 16.1 mph 23.0 mph N/A   Mostly Cloudy
8:55 AM 17.6 °F 2.2 °F 5.0 °F 58% 30.54 in 10.0 mi NW 17.3 mph 23.0 mph N/A   Overcast
9:15 AM 17.6 °F 3.2 °F 6.8 °F 63% 30.55 in 10.0 mi NW 15.0 mph 25.3 mph N/A   Overcast
9:35 AM 17.6 °F 3.2 °F 5.0 °F 58% 30.55 in 10.0 mi NNW 15.0 mph 27.6 mph N/A   Overcast
9:55 AM 17.6 °F 1.3 °F 5.0 °F 58% 30.56 in 10.0 mi NNW 19.6 mph 24.2 mph N/A   Overcast
10:15 AM 19.4 °F 6.6 °F 5.0 °F 54% 30.57 in 10.0 mi NW 12.7 mph 24.2 mph N/A   Overcast
10:35 AM 19.4 °F 2.8 °F 5.0 °F 54% 30.57 in 10.0 mi NNW 21.9 mph 26.5 mph N/A   Overcast
10:55 AM 19.4 °F 5.5 °F 5.0 °F 54% 30.57 in 10.0 mi NW 15.0 mph 26.5 mph N/A   Mostly Cloudy
11:15 AM 19.4 °F 5.0 °F 5.0 °F 54% 30.56 in 10.0 mi NW 16.1 mph 24.2 mph N/A   Overcast
11:35 AM 19.4 °F 4.1 °F 3.2 °F 49% 30.57 in 10.0 mi NW 18.4 mph 21.9 mph N/A   Overcast
11:55 AM 19.4 °F 3.2 °F 3.2 °F 49% 30.57 in 10.0 mi NW 20.7 mph 26.5 mph N/A   Overcast
12:15 PM 19.4 °F 6.0 °F 3.2 °F 49% 30.57 in 10.0 mi WNW 13.8 mph 24.2 mph N/A   Mostly Cloudy
12:35 PM 21.2 °F 8.3 °F 1.4 °F 42% 30.57 in 10.0 mi NNW 13.8 mph 24.2 mph N/A   Mostly Cloudy
12:55 PM 21.2 °F 6.8 °F 1.4 °F 42% 30.57 in 10.0 mi NW 17.3 mph 21.9 mph N/A   Overcast
1:15 PM 19.4 °F 4.1 °F -0.4 °F 42% 30.57 in 10.0 mi NNW 18.4 mph 25.3 mph N/A   Mostly Cloudy
1:35 PM 21.2 °F 7.8 °F -2.2 °F 36% 30.57 in 10.0 mi NW 15.0 mph 28.8 mph N/A   Mostly Cloudy
1:55 PM 21.2 °F 7.8 °F -2.2 °F 36% 30.58 in 10.0 mi NW 15.0 mph 26.5 mph N/A   Mostly Cloudy
2:15 PM 19.4 °F 5.0 °F -2.2 °F 39% 30.58 in 10.0 mi NW 16.1 mph 25.3 mph N/A   Scattered Clouds
2:35 PM 21.2 °F 6.0 °F -2.2 °F 36% 30.59 in 10.0 mi NNW 19.6 mph 27.6 mph N/A   Scattered Clouds
2:55 PM 19.4 °F 4.1 °F -2.2 °F 39% 30.59 in 10.0 mi NW 18.4 mph 24.2 mph N/A   Scattered Clouds
3:15 PM 19.4 °F 6.0 °F -0.4 °F 42% 30.60 in 10.0 mi NNW 13.8 mph 25.3 mph N/A   Scattered Clouds
3:35 PM 19.4 °F 5.0 °F -0.4 °F 42% 30.60 in 10.0 mi NW 16.1 mph 24.2 mph N/A   Mostly Cloudy
3:55 PM 19.4 °F 6.0 °F -0.4 °F 42% 30.60 in 10.0 mi WNW 13.8 mph 21.9 mph N/A   Mostly Cloudy
4:15 PM 17.6 °F 5.0 °F 1.4 °F 49% 30.60 in 10.0 mi NW 11.5 mph 19.6 mph N/A   Scattered Clouds
4:35 PM 17.6 °F 5.0 °F -0.4 °F 45% 30.61 in 10.0 mi NW 11.5 mph 18.4 mph N/A   Clear
4:55 PM 17.6 °F 3.7 °F -0.4 °F 45% 30.62 in 10.0 mi WNW 13.8 mph 18.4 mph N/A   Clear
5:15 PM 17.6 °F 3.2 °F -0.4 °F 45% 30.62 in 10.0 mi WNW 15.0 mph - N/A   Clear
5:35 PM 17.6 °F 4.3 °F -0.4 °F 45% 30.63 in 10.0 mi WNW 12.7 mph 18.4 mph N/A   Clear
5:55 PM 15.8 °F 5.1 °F 1.4 °F 53% 30.63 in 10.0 mi WNW 8.1 mph - N/A   Clear
6:15 PM 15.8 °F 3.4 °F 1.4 °F 53% 30.64 in 10.0 mi WNW 10.4 mph 16.1 mph N/A   Scattered Clouds
6:35 PM 15.8 °F 2.1 °F 1.4 °F 53% 30.65 in 10.0 mi NW 12.7 mph - N/A   Clear
6:55 PM 15.8 °F 3.4 °F 1.4 °F 53% 30.64 in 10.0 mi WNW 10.4 mph - N/A   Clear
7:15 PM 14.0 °F 3.9 °F 1.4 °F 57% 30.64 in 10.0 mi WNW 6.9 mph 17.3 mph N/A   Clear
7:35 PM 14.0 °F 0.5 °F 1.4 °F 57% 30.64 in 10.0 mi NW 11.5 mph - N/A   Clear
7:55 PM 14.0 °F 1.2 °F 1.4 °F 57% 30.64 in 10.0 mi NW 10.4 mph 17.3 mph N/A   Clear
8:15 PM 14.0 °F 1.2 °F 1.4 °F 57% 30.64 in 10.0 mi NW 10.4 mph - N/A   Clear
8:35 PM 14.0 °F 2.9 °F 1.4 °F 57% 30.64 in 10.0 mi WNW 8.1 mph - N/A   Clear
8:55 PM 14.0 °F 2.9 °F 1.4 °F 57% 30.64 in 10.0 mi WNW 8.1 mph - N/A   Clear
9:15 PM 14.0 °F 3.9 °F 1.4 °F 57% 30.65 in 10.0 mi WNW 6.9 mph - N/A   Clear
9:35 PM 14.0 °F 1.2 °F 1.4 °F 57% 30.65 in 10.0 mi WNW 10.4 mph - N/A   Clear
9:55 PM 12.2 °F -0.2 °F 1.4 °F 62% 30.65 in 10.0 mi WNW 9.2 mph - N/A   Clear
10:15 PM 12.2 °F 1.7 °F 1.4 °F 62% 30.65 in 10.0 mi WNW 6.9 mph - N/A   Clear
10:35 PM 12.2 °F -0.2 °F 1.4 °F 62% 30.65 in 10.0 mi West 9.2 mph - N/A   Clear
10:55 PM 12.2 °F 1.7 °F 1.4 °F 62% 30.66 in 10.0 mi WNW 6.9 mph - N/A   Clear
11:15 PM 12.2 °F 0.7 °F 1.4 °F 62% 30.66 in 10.0 mi West 8.1 mph - N/A   Clear
11:35 PM 12.2 °F -0.2 °F 1.4 °F 62% 30.65 in 10.0 mi West 9.2 mph - N/A   Clear
11:55 PM 12.2 °F -0.2 °F 1.4 °F 62% 30.64 in 10.0 mi West 9.2 mph - N/A   Clear